This is the latest recevied weather packets stored in our database for station/object N1MCJ. If no packets are shown the sender has not sent any weather packets the latest 10 day(s).
| Time | Temp. | Humidity | Pressure | Rain* | Wind** | Luminosity | Snow |
|---|---|---|---|---|---|---|---|
| 1778019300 | 21.11° C | 59% | 1000.3 hPa | 0 mm | - | 59 W/m² | - |
| 1778018397 | 21.11° C | 60% | 999.9 hPa | 0 mm | - | 162 W/m² | - |
| 1778017496 | 20.56° C | 60% | 1000 hPa | 0 mm | - | 78 W/m² | - |
| 1778016592 | 22.22° C | 59% | 999.9 hPa | 0 mm | - | 248 W/m² | - |
| 1778015689 | 22.22° C | 57% | 999.8 hPa | 0 mm | - | 233 W/m² | - |
| 1778014785 | 21.67° C | 58% | 999.8 hPa | 0 mm | - | 330 W/m² | - |
| 1778013883 | 21.67° C | 59% | 999.7 hPa | 0 mm | - | 373 W/m² | - |
| 1778012978 | 22.22° C | 56% | 999.9 hPa | 0 mm | - | 409 W/m² | - |
| 1778012074 | 22.78° C | 57% | 999.8 hPa | 0 mm | - | 519 W/m² | - |
| 1778011170 | 22.22° C | 57% | 1000.1 hPa | 0 mm | - | 408 W/m² | - |
| 1778010269 | 22.78° C | 56% | 1000.3 hPa | 0 mm | - | 585 W/m² | - |
| 1778009364 | 22.22° C | 59% | 1000.2 hPa | 0 mm | - | 144 W/m² | - |
| 1778008464 | 22.22° C | 58% | 1000.7 hPa | 0 mm | - | 208 W/m² | - |
| 1778007562 | 23.33° C | 57% | 1000.8 hPa | 0 mm | - | 346 W/m² | - |
| 1778006659 | 22.78° C | 58% | 1001 hPa | 0 mm | - | 681 W/m² | - |
| 1778005755 | 22.78° C | 58% | 1000.9 hPa | 0 mm | - | 107 W/m² | - |
| 1778004852 | 22.78° C | 57% | 1001.1 hPa | 0 mm | - | 194 W/m² | - |
| 1778003948 | 23.33° C | 57% | 1000.9 hPa | 0 mm | - | 174 W/m² | - |
| 1778003044 | 22.78° C | 55% | 1001.2 hPa | 0 mm | - | 303 W/m² | - |
| 1778002139 | 22.78° C | 56% | 1001 hPa | 0 mm | - | 109 W/m² | - |
| 1778001240 | 22.78° C | 55% | 1001.4 hPa | 0 mm | - | 524 W/m² | - |
| 1778000334 | 22.78° C | 57% | 1001.4 hPa | 0 mm | - | 88 W/m² | - |
| 1777999435 | 22.22° C | 58% | 1001.3 hPa | 0 mm | - | 301 W/m² | - |
| 1777998530 | 22.22° C | 58% | 1001.5 hPa | 0 mm | - | 69 W/m² | - |
| 1777997625 | 22.22° C | 57% | 1002.2 hPa | 0 mm | - | 370 W/m² | - |
* Rain latest hour (hover to see other rain measurements)
** Current wind speed in m/s (hover to see current wind gust speed)